Location: *
(48.8489°N, 2.3218°E)
Time: 01:12:42
(UTC+00:00)

TSX-5 - Pass Details

Date: 23 August 2019
Orbit: 404 x 1333 km, 68.9° (Epoch: 17 October)

Event Time Altitude Azimuth Distance (km) Brightness Sun altitude
Rises 19:33:04 0° 330° (NNW) 2,393 8.1 -7.1°
Reaches altitude 10° 19:35:01 10° 334° (NNW) 1,575 7.0 -7.4°
Maximum altitude 19:38:24 66° 57° (ENE) 547 3.7 -7.9°
Drops below altitude 10° 19:42:29 10° 140° (SE) 1,890 6.0 -8.5°
Enters shadow 19:42:42 - 141° (SE) 1,976 6.1 -8.5°
